Total_Precipitation_Accumulation
0.52 0.40 0.49 0.56 0.49 0.50 0.78 0.83 0.74 0.45 0.37 0.40 0.38 0.37 0.37 0.37 0.38 0.35 0.35 0.40 0.45 0.51 0.55 0.60 0.66 0.75 0.81 0.85 0.88 0.92 1.03 1.08 1.13 1.16 1.23 1.27 1.24 1.35 1.52 1.47 1.32 1.24 1.23 1.30
0.46 0.31 0.38 0.45 0.36 0.38 0.44 0.46 0.44 0.33 0.34 0.35 0.34 0.29 0.31 0.35 0.38 0.40 0.41 0.42 0.44 0.51 0.55 0.62 0.69 0.78 0.91 0.92 0.91 0.86 0.92 1.02 1.09 1.17 1.31 1.32 1.26 1.31 1.43 1.50 1.41 1.30 1.24 1.25
0.72 0.35 0.60 0.67 0.45 0.43 0.45 0.45 0.49 0.54 0.46 0.35 0.34 0.34 0.40 0.45 0.47 0.47 0.46 0.46 0.46 0.51 0.58 0.67 0.72 0.81 0.93 0.96 0.94 0.90 0.91 0.97 1.03 1.09 1.25 1.31 1.29 1.36 1.41 1.48 1.54 1.51 1.35 1.24
1.22 0.85 1.15 0.58 0.31 0.34 0.40 0.46 0.51 0.49 0.40 0.38 0.42 0.38 0.38 0.45 0.53 0.53 0.49 0.48 0.48 0.53 0.60 0.64 0.71 0.77 0.85 0.90 0.91 0.96 0.97 0.99 1.04 1.05 1.09 1.24 1.34 1.37 1.39 1.42 1.46 1.52 1.46 1.35
1.81 1.28 0.69 0.32 0.26 0.35 0.47 0.53 0.45 0.40 0.36 0.34 0.31 0.28 0.30 0.32 0.41 0.51 0.51 0.52 0.54 0.57 0.61 0.63 0.66 0.72 0.82 0.87 0.88 0.99 1.06 1.06 1.03 0.99 1.02 1.13 1.24 1.34 1.38 1.41 1.37 1.38 1.38 1.38
2.04 1.58 0.75 0.43 0.26 0.24 0.39 0.65 0.40 0.35 0.38 0.35 0.34 0.46 0.37 0.31 0.38 0.48 0.47 0.49 0.54 0.57 0.55 0.60 0.64 0.69 0.80 0.87 0.85 0.96 1.05 1.10 1.00 0.91 0.89 0.92 1.03 1.22 1.34 1.36 1.30 1.31 1.32 1.32
1.71 1.40 0.62 0.39 0.27 0.29 0.64 0.72 0.38 0.36 0.40 0.40 0.47 0.55 0.43 0.37 0.42 0.46 0.44 0.47 0.49 0.51 0.52 0.61 0.67 0.67 0.75 0.84 0.90 0.95 1.02 1.09 1.00 0.89 0.87 0.88 0.96 1.14 1.28 1.35 1.35 1.29 1.24 1.25
1.25 1.46 0.79 0.38 0.39 0.64 0.75 0.42 0.33 0.31 0.32 0.34 0.33 0.30 0.30 0.33 0.40 0.42 0.39 0.39 0.41 0.44 0.49 0.57 0.64 0.68 0.75 0.83 0.90 0.98 1.02 1.02 1.01 0.97 0.93 0.93 0.98 1.12 1.26 1.35 1.42 1.36 1.25 1.22
0.94 0.81 0.53 0.42 0.53 0.55 0.48 0.38 0.30 0.31 0.28 0.28 0.27 0.28 0.31 0.34 0.38 0.40 0.38 0.38 0.38 0.42 0.46 0.53 0.60 0.67 0.79 0.85 0.85 0.94 0.98 1.01 1.02 1.03 1.01 1.01 1.04 1.14 1.26 1.34 1.40 1.38 1.28 1.21
0.66 0.43 0.35 0.37 0.40 0.40 0.35 0.33 0.28 0.28 0.27 0.25 0.25 0.25 0.29 0.33 0.35 0.37 0.37 0.37 0.38 0.41 0.44 0.53 0.59 0.63 0.74 0.82 0.81 0.82 0.88 0.98 0.98 1.01 1.07 1.10 1.12 1.15 1.23 1.33 1.41 1.32 1.25 1.16
0.59 0.36 0.32 0.31 0.31 0.32 0.27 0.24 0.23 0.24 0.24 0.24 0.25 0.25 0.27 0.32 0.34 0.37 0.42 0.42 0.43 0.45 0.47 0.54 0.61 0.67 0.74 0.76 0.75 0.77 0.81 0.93 1.02 1.05 1.11 1.16 1.17 1.20 1.27 1.27 1.42 1.40 1.25 1.18
0.59 0.38 0.44 0.37 0.29 0.28 0.27 0.25 0.26 0.26 0.25 0.23 0.25 0.29 0.28 0.31 0.34 0.38 0.44 0.47 0.47 0.47 0.51 0.56 0.63 0.74 0.77 0.74 0.72 0.76 0.81 0.88 0.99 1.08 1.09 1.09 1.09 1.15 1.31 1.34 1.37 1.34 1.27 1.24
0.41 0.33 0.33 0.30 0.26 0.26 0.26 0.24 0.25 0.26 0.27 0.26 0.25 0.28 0.32 0.33 0.33 0.37 0.41 0.46 0.53 0.57 0.61 0.62 0.66 0.75 0.78 0.74 0.72 0.74 0.81 0.86 0.94 1.03 1.03 1.00 0.98 0.99 1.10 1.27 1.37 1.35 1.32 1.27
0.24 0.27 0.28 0.23 0.22 0.21 0.21 0.20 0.21 0.21 0.22 0.23 0.24 0.25 0.29 0.31 0.30 0.33 0.39 0.47 0.55 0.58 0.61 0.64 0.69 0.76 0.79 0.74 0.72 0.73 0.78 0.89 0.94 0.98 1.01 0.99 0.98 0.97 0.98 1.08 1.21 1.29 1.32 1.28
0.15 0.19 0.23 0.18 0.17 0.17 0.16 0.17 0.18 0.18 0.18 0.18 0.19 0.23 0.27 0.31 0.33 0.36 0.41 0.48 0.54 0.57 0.59 0.64 0.72 0.82 0.82 0.76 0.73 0.75 0.82 0.87 0.88 0.93 0.98 1.00 1.01 1.03 1.05 1.07 1.12 1.17 1.22 1.35
0.15 0.15 0.17 0.17 0.18 0.18 0.18 0.18 0.19 0.18 0.18 0.18 0.20 0.21 0.24 0.31 0.37 0.43 0.47 0.51 0.57 0.62 0.65 0.69 0.74 0.83 0.81 0.75 0.75 0.76 0.85 0.97 0.94 0.95 0.99 1.02 1.03 1.09 1.15 1.18 1.19 1.16 1.17 1.27
0.24 0.21 0.19 0.19 0.17 0.17 0.19 0.20 0.20 0.20 0.19 0.20 0.21 0.22 0.24 0.28 0.34 0.40 0.46 0.54 0.61 0.66 0.68 0.70 0.76 0.79 0.80 0.79 0.77 0.77 0.81 0.90 0.99 0.97 0.95 0.98 1.03 1.08 1.14 1.21 1.22 1.15 1.09 1.19
0.27 0.25 0.22 0.22 0.21 0.20 0.19 0.18 0.19 0.22 0.23 0.24 0.24 0.26 0.27 0.31 0.37 0.44 0.51 0.55 0.58 0.62 0.68 0.71 0.77 0.79 0.80 0.84 0.81 0.79 0.82 0.87 0.90 0.93 0.95 1.00 1.07 1.08 1.15 1.21 1.19 1.16 1.13 1.20
0.20 0.20 0.18 0.19 0.20 0.19 0.20 0.21 0.22 0.24 0.25 0.27 0.28 0.30 0.32 0.36 0.42 0.49 0.54 0.55 0.55 0.59 0.67 0.71 0.79 0.75 0.77 0.86 0.88 0.85 0.88 0.92 0.94 0.92 0.93 1.06 1.12 1.10 1.13 1.17 1.20 1.19 1.19 1.21
0.19 0.18 0.17 0.17 0.17 0.18 0.21 0.23 0.23 0.24 0.25 0.27 0.31 0.32 0.33 0.38 0.44 0.49 0.54 0.56 0.59 0.66 0.67 0.71 0.72 0.71 0.73 0.84 0.93 0.88 0.92 0.96 0.97 0.95 0.94 1.00 1.05 1.09 1.11 1.15 1.18 1.21 1.21 1.22
0.20 0.18 0.17 0.17 0.18 0.19 0.21 0.23 0.23 0.23 0.24 0.27 0.33 0.37 0.40 0.45 0.48 0.51 0.52 0.52 0.54 0.58 0.60 0.64 0.66 0.69 0.73 0.87 0.97 0.93 0.94 0.95 0.97 0.97 0.98 0.99 1.04 1.08 1.11 1.13 1.16 1.18 1.21 1.23
0.22 0.22 0.21 0.20 0.20 0.22 0.24 0.25 0.26 0.27 0.28 0.29 0.34 0.39 0.43 0.47 0.47 0.48 0.48 0.52 0.55 0.60 0.59 0.57 0.60 0.70 0.79 0.87 0.89 0.89 0.89 0.91 0.94 0.98 1.01 1.02 1.08 1.14 1.13 1.12 1.17 1.18 1.19 1.22
0.24 0.23 0.24 0.25 0.26 0.27 0.25 0.25 0.29 0.33 0.34 0.35 0.38 0.42 0.45 0.47 0.47 0.48 0.50 0.51 0.55 0.63 0.61 0.61 0.68 0.77 0.85 0.82 0.80 0.83 0.85 0.88 0.92 0.98 1.03 1.07 1.10 1.14 1.17 1.17 1.19 1.19 1.23 1.25
0.27 0.26 0.27 0.28 0.29 0.28 0.27 0.28 0.31 0.36 0.39 0.40 0.41 0.45 0.47 0.48 0.47 0.47 0.53 0.60 0.64 0.68 0.65 0.71 0.79 0.83 0.87 0.80 0.77 0.82 0.88 0.93 0.96 1.03 1.08 1.11 1.14 1.17 1.17 1.17 1.19 1.18 1.20 1.22
0.30 0.29 0.29 0.29 0.31 0.34 0.35 0.33 0.33 0.35 0.36 0.40 0.43 0.45 0.49 0.54 0.58 0.58 0.58 0.63 0.69 0.73 0.73 0.78 0.83 0.85 0.82 0.81 0.81 0.86 0.94 1.00 1.08 1.19 1.22 1.18 1.17 1.18 1.14 1.12 1.17 1.20 1.20 1.18
0.35 0.36 0.36 0.37 0.39 0.40 0.40 0.39 0.38 0.37 0.37 0.40 0.45 0.49 0.54 0.58 0.60 0.62 0.63 0.66 0.70 0.75 0.76 0.77 0.81 0.84 0.85 0.89 0.93 0.96 1.04 1.10 1.14 1.15 1.12 1.12 1.12 1.11 1.09 1.08 1.11 1.16 1.17 1.15
0.40 0.39 0.40 0.42 0.44 0.45 0.46 0.47 0.49 0.49 0.48 0.51 0.55 0.56 0.58 0.62 0.66 0.68 0.69 0.71 0.73 0.76 0.79 0.82 0.85 0.90 0.95 0.99 1.03 1.06 1.10 1.11 1.12 1.12 1.10 1.11 1.12 1.09 1.07 1.07 1.09 1.12 1.12 1.09